Hourly Data Report for June 29, 2019

KUGAARUK CLIMATE
NUNAVUT
Current Station Operator: ECCC - MSC

68°32'15.060" N
89°47'47.020" W
15.80 m
2303094
71407
NBB

Download Data

Hourly Data (June 2019)
Hourly Data Report for June 29, 2019
TIME
LST
Temp Definition
°C
Dew Point Definition
°C
Rel Hum Definition
%
Precip. Amount Definition
mm

Wind Dir Definition
10's deg

Wind Spd Definition
km/h
Visibility Definition
km
Stn Press Definition
kPa
Hmdx Definition


Wind Chill Definition


Weather Definition


00:00 13.3 7.3 67 0.0 11 4   102.08     LegendNANA
01:00 11.3 7.1 75 0.0 25 9   102.08     LegendNANA
02:00 11.5 7.2 75 0.0 23 5   102.06     LegendNANA
03:00 12.9 7.1 68 0.0 35 1   102.03     LegendNANA
04:00 13.3 8.2 71 0.0 5 3   102.02     LegendNANA
05:00 13.4 8.6 72 0.0 27 4   102.02     LegendNANA
06:00 11.8 7.6 75 0.0 24 12   102.03     LegendNANA
07:00 11.7 7.2 74 0.0 25 15   102.03     LegendNANA
08:00 15.3 10.0 71 0.0 25 8   101.97     LegendNANA
09:00 15.8 10.6 71 0.0 12 3   101.92     LegendNANA
10:00 17.0 10.3 65 0.0 3 10   101.87     LegendNANA
11:00 18.0 10.0 60 0.0 4 9   101.83     LegendNANA
12:00 19.2 7.7 47 0.0 25 10   101.80     LegendNANA
13:00 19.5 9.1 51 0.0 26 9   101.75     LegendNANA
14:00 20.0 6.9 42 0.0 35 3   101.70     LegendNANA
15:00 19.9 8.4 47 0.0 5 9   101.67     LegendNANA
16:00 15.8 9.4 66 0.0 26 8   101.68     LegendNANA
17:00 17.3 9.7 61 0.0 4 6   101.61     LegendNANA
18:00 18.5 10.1 58 0.0 8 12   101.55     LegendNANA
19:00 18.4 9.2 55 0.0 13 14   101.50     LegendNANA
20:00 17.6 8.8 56 0.0 15 24   101.46     LegendNANA
21:00 16.6 8.2 57 0.0 15 26   101.43     LegendNANA
22:00 16.0 6.5 53 0.0 15 26   101.42     LegendNANA
23:00                      

Notes on Data Quality.

Legend

  • E = Estimated
  • M = Missing
  • NA = Not Available*
  • [empty] = Indicates an unobserved value
Date modified: